Regional Weather Roundup
Issued by NWS Green Bay, WI

Home | Current Version | Previous Version | Text Only | Print | Product List | Glossary On
Versions: 1 2 3 4 5 6 7 8 9 10 11 12 13 14 15 16 17 18 19 20 21 22 23 24 25 26 27 28 29 30 31 32 33 34 35 36 37 38 39 40 41 42 43 44 45 46 47 48 49 50
000
ASUS43 KGRB 161411
RWRGRB

NORTH-CENTRAL AND NORTHEAST WISCONSIN REGIONAL WEATHER ROUNDUP
NATIONAL WEATHER SERVICE GREEN BAY WI
800 AM CST TUE JAN 16 2018

WIZ005-009-010>012-018-019-161500-
NORTH CENTRAL WISCONSIN

CITY           SKY/WX    TMP DP  RH WIND       PRES   REMARKS
IRONWOOD       FLURRIES  16  13  88 N6        30.52R WCI   7
MANITOWISH WTR LGT SNOW  14  14  99 CALM      30.46S
ARBOR VITAE    CLOUDY    14  12  91 N3        30.45S
EAGLE RIVER    FLURRIES   9   6  87 N3        30.43R
LAND O LAKES   LGT SNOW  16  14  92 N8        30.46R WCI   5
RHINELANDER    FAIR       9   7  92 CALM      30.45R
PHILLIPS       LGT SNOW  13  12  95 CALM      30.48S
ANTIGO         LGT SNOW  -2  -4  88 CALM      30.44R
TOMAHAWK       MOCLDY     7   5  89 CALM      30.47R
MERRILL        MOCLDY    -4  -7  85 CALM      30.48R
$$

WIZ013-073-161500-
NORTHEAST WISCONSIN

CITY           SKY/WX    TMP DP  RH WIND       PRES   REMARKS
IRON MOUNTAIN  FAIR      -1  -7  75 N5        30.43R WCI -11
MARINETTE      CLOUDY     9   6  88 NW5       30.49R WCI   1
OCONTO         MOCLDY    10   6  85 CALM      30.48R
$$

WIZ017-030-035>037-045-161500-
CENTRAL WISCONSIN

CITY           SKY/WX    TMP DP  RH WIND       PRES   REMARKS
MEDFORD        MOCLDY     7   5  89 NW5       30.47R WCI  -1
WAUSAU         FAIR       5   3  91 NW8       30.46R WCI  -8
MOSINEE        PTCLDY     7   5  92 NW10      30.47S WCI  -8
MARSHFIELD     MOCLDY     8   4  83 N10       30.46R WCI  -6
WISC RAPIDS    FAIR       4   0  83 N5        30.50R WCI  -5
STEVENS POINT  FAIR       6   4  93 N5        30.48R WCI  -3
WAUPACA        FAIR      10   6  84 NW6       30.48S WCI   0
SHAWANO        FAIR       7   2  83 CALM      30.48R
CLINTONVILLE   FAIR       9   5  85 NW6       30.48S WCI  -1
WAUTOMA        FAIR       6   3  87 NW5       30.49R WCI  -3
$$

WIZ038-039-048-051-161500-
FOX VALLEY

CITY           SKY/WX    TMP DP  RH WIND       PRES   REMARKS
NWS GREEN BAY  CLOUDY     9   5  84 CALM      30.48R
APPLETON       PTCLDY     9   3  78 N10       30.44R WCI  -6
OSHKOSH        FAIR       9   6  88 NW6       30.46R WCI  -1
FOND DU LAC    FAIR      12   6  77 N9        30.46S WCI   0
$$

WIZ022-050-052-161500-
EAST CENTRAL WISCONSIN

CITY           SKY/WX    TMP DP  RH WIND       PRES   REMARKS
EPHRAIM        FAIR       6   3  88 N7        30.45R WCI  -6
WASHINGTON ISL FAIR       6   3  88 N6        30.46R FOG     WCI  -5
STURGEON BAY   FAIR       5   3  91 N10       30.47R WCI -10
MANITOWOC      FLURRIES   9   5  84 NW13      30.45R WCI  -7
SHEBOYGAN      FAIR      11   6  81 N9        30.43R WCI  -2
$$

LMZ563-521-522-541>543-161500-
LAKESHORE

STATION/POSITION TIME  TEMP    WIND        PRES    VSBY  WAVE
                       AIR SEA DIR/SP/G                  HT/PER
                 (UTC) (F)     (DEG/KT/KT) (MB)    (MI)  (FT/S)
SHEBOYGAN LKSHOR 1400   14     330/ 16/ 19 1031.6R
KEWAUNEE LKSHORE 1348    9     330/ 10/ 14 1030.1R
NORTHPORT PIER   1328    8      CALM  /  2 1031.5R
MENOMINEE LKSHOR 1348    9     310/  6/  7 1031.5R
$$



USA.gov is the U.S. government's official web portal to all federal, state and local government web resources and services.